Regional Weather Roundup
Issued by NWS Upton, NY

Current Version | Previous Version | Text Only | Print | Product List | Glossary On
Versions: 1 2 3 4 5 6 7 8 9 10 11 12 13 14 15 16 17 18 19 20 21 22 23 24 25 26 27
000 ASUS41 KOKX 180308 RWROKX REGIONAL WEATHER ROUNDUP NATIONAL WEATHER SERVICE NEW YORK NY 1100 PM EDT TUE OCT 17 2017 NOTE: "FAIR" INDICATES FEW OR NO CLOUDS BELOW 12,000 FEET WITH NO SIGNIFICANT WEATHER AND/OR OBSTRUCTIONS TO VISIBILITY. NYZ071-072-176-178-NJZ106-104-180400- NEW YORK CITY METRO AREA CITY SKY/WX TMP DP RH WIND PRES REMARKS Central Park CLEAR 54 37 52 VRB6 30.32R Bronx Bot Gard N/A 54 36 50 SW22 30.31F LaGuardia APRT CLEAR 56 37 49 SW10 30.29R Kennedy INTL CLEAR 55 41 59 SW16 30.31R Breezy Point N/A 54 N/A N/A SW13 N/A Newark/Liberty CLEAR 50 39 66 SW6 30.30R Teterboro CLEAR 51 39 63 SW9 30.29R $$ NYZ177-179-078>081-180400- LONG ISLAND NEW YORK CITY SKY/WX TMP DP RH WIND PRES REMARKS Jones Beach N/A 55 N/A N/A SW9G16 N/A Matinecock PT N/A 54 N/A N/A SW8 N/A Farmingdale CLEAR 49 41 74 W3 30.30R MacArthur/ISP CLEAR 45 41 86 CALM 30.29S Shirley CLEAR 45 41 86 CALM 30.30S Mt Sinai Harb N/A N/A N/A N/A S7 N/A Westhampton CLEAR 34 30 85 CALM 30.31S East Hampton FAIR 35 33 94 CALM 30.30R Montauk N/A 52 43 71 SW6 30.30S $$ NYZ052-065-067-180400- HUDSON VALLEY CITY SKY/WX TMP DP RH WIND PRES REMARKS White Plains CLEAR 50 39 66 CALM 30.28R Larchmont Harb N/A 57 N/A N/A SW17 N/A Croton On Huds N/A 52 N/A N/A MISG N/A Newburgh CLEAR 46 37 71 W5 30.27S Montgomery CLEAR 39 37 92 SW5 30.26R Poughkeepsie CLEAR 41 37 86 CALM 30.26R Albany CLEAR 47 34 60 S6 30.22R $$ NJZ001-105-106-008-010-013-015-019>022-104-180400- NEW JERSEY CITY SKY/WX TMP DP RH WIND PRES REMARKS Newark/Liberty CLEAR 50 39 66 SW6 30.30R Teterboro CLEAR 51 39 63 SW9 30.29R Caldwell CLEAR 45 39 79 CALM 30.30R Somerville CLEAR 39 38 96 CALM 30.29R Linden FAIR 50 38 62 CALM 30.31R Perth Amboy N/A 50 N/A N/A W6 N/A Sussex CLEAR 40 37 89 CALM 30.28S Andover N/A 41 40 96 S3 30.29R Trenton CLEAR 48 38 68 SW3 30.31R Millville CLEAR 41 40 96 CALM 30.33S Atlantic City CLEAR 42 39 89 CALM 30.33S Wrightstown CLEAR 43 39 87 W3 30.31R Toms River N/A 39 37 92 CALM 30.33S Belmar CLEAR 46 40 79 SW6 30.32S $$ PAZ047>061-062-071-180400- EASTERN PENNSYLVANIA CITY SKY/WX TMP DP RH WIND PRES REMARKS Philadelphia CLEAR 52 41 66 SW7 30.32S Allentown CLEAR 44 36 73 W3 30.30R Scranton CLEAR 43 35 73 S3 30.27R $$ CTZ002-004>006-009-010-012-RIZ004-006-007-MAZ004-011-015-180400- SOUTHERN NEW ENGLAND IN CT CITY SKY/WX TMP DP RH WIND PRES REMARKS Bradley INTL CLEAR 45 37 73 S6 30.25S Hartford CLEAR 48 38 68 S6 30.26S Danbury CLEAR 46 38 73 CALM 30.29R Wtrbury/Oxford CLEAR 46 39 76 SW5 30.28R Norwalk Harbor N/A 55 N/A N/A SW20 N/A Bridgeport CLEAR 58 42 55 SW16 30.28S Meriden CLEAR 39 37 92 CALM 30.28S New Haven CLEAR 57 41 55 SW12G18 30.28S Chester FAIR 48 41 76 SW5 30.27F Groton CLEAR 54 40 59 SW14 30.27F Wilimantic CLEAR 40 37 89 CALM 30.28R IN RI CITY SKY/WX TMP DP RH WIND PRES REMARKS Providence CLEAR 46 39 76 W5 30.28S Block Island CLEAR 53 42 66 SW9 30.29S Westerly CLEAR 54 40 59 SW6 30.29S IN MA CITY SKY/WX TMP DP RH WIND PRES REMARKS Boston CLEAR 48 37 65 SW10 30.24S Worcester CLEAR 44 32 62 SW14 30.22F Westfield CLEAR 40 35 83 S5 30.24S Provincetown CLEAR 51 41 68 SW17G24 30.26F Nantucket CLEAR 48 42 80 W10 30.28S $$ ANZ330-335-338-340-345-350-353-355-180400- COASTAL MARINE OBSERVATIONS STATION/POSITION TIME SKY/WX TEMP WIND PRES VSBY WAVE AIR SEA DIR/SP/G HT/PER (UTC) (F) (DEG/KT/KT) (MB) (MI) (FT/S) NY HARB ENTRANCE 0150 58 65 230/ 14/ 17 1025.3 2/11 20 S FIRE ISLAND 0150 56 63 240/ 10/ 14 1026.3 2/10 GREAT SOUTH BAY 0230 58 62 240/ 12/ 16 N/A 15 E BARNEGAT LI 0230 66 N/A 2/10 HUDSON CANYON 0150 55 64 280/ 4/ 6 1026.1 3/ 6 KINGS POINT 0230 56 66 260/ 10/ 12 1026.5 EXECUTION ROCKS 0245 58 200/ 17/ 21 N/A WESTERN LI SOUND 0149 56 210/ 14/ 17 N/A 1/ 3 CENTRAL LI SOUND 0200 57 220/ 16/ 19 N/A 2 EASTERN LI SOUND NOT AVBL ROBBINS REEF 0242 55 220/ 14/ 19 1026.5 $$ >>>>>>>>>>>>>>>>>>>>>>>>>>>> KEY <<<<<<<<<<<<<<<<<<<<<<<<<<< > < > SKY/WX - Sky Condition/Present Weather < > TMP - Temperature in Fahrenheit < > DP - Dew Point in Fahrenheit < > RH - Relative Humidity in Percent < > WIND - Direction (from) and Speed in MPH < > PRES - Mean Sea Level Pressure (inches of Hg) < > WCI - Wind Chill Index < > VSB - VISIBILITY IN MILES < > HX - HEAT INDEX < > TC - TEMPERATURE IN CELSIUS < > VRB - VARIABLE WIND DIRECTION < > < >>>>>>>>>>>>>>>>>>>>>>>>>>>> KEY <<<<<<<<<<<<<<<<<<<<<<<<<<<

USA.gov is the U.S. government's official web portal to all federal, state and local government web resources and services.